Home > Weather > Niigata > Past weeks

Flag for Japan Past Weather in Niigata, Japan — Yesterday and Last 2 Weeks

Now
70 °F

Mild.


Feels Like: 70 °F
Forecast: 73 / 78 °F
Wind: 7 mph from Northeast

Location: Aikawa

Current Time: Aug 27, 2016 at 5:01:41 AM

Latest Report: Aug 27, 2016 at 4:00 AM


Visibility: 9 mi

Pressure: 29.76 "Hg

Humidity: 76%

Dew Point: 62 °F

Location of NiigataLocation

Past Weather in Niigata — Graph

°F

Niigata Temperature Yesterday

Maximum temperature yesterday: 83 °F (at 2:00 AM)
Minimum temperature yesterday: 70 °F (at 11:00 PM)
Average temperature yesterday: 77 °F

High & Low Weather Summary for the Past Weeks

 TemperatureHumidityPressure
High94 °F (Aug 20, 2:00 PM)98% (Aug 26, 6:00 AM)29.83 "Hg (Aug 26, 6:00 AM)
Low69 °F (Aug 27, 2:00 AM)48% (Aug 20, 2:00 PM)29.47 "Hg (Aug 17, 12:00 AM)
Average80 °F74%29.68 "Hg
* Reported Aug 12 3:00 AM — Aug 27 3:00 AM, Niigata, Weather by CustomWeather, © 2016

Note: Actual official high and low records may vary slightly from our data, if they occured in-between our weather recording intervals... More about our weather records

Advertising

Niigata Weather History for the Previous 24 Hours

Scroll right to see more
 ConditionsComfort  
Time TempWeatherWind HumidityBarometerVisibility
3:00 AM
Sat, Aug 27
70 °FMild.7 mph79%29.76 "Hg11 mi
2:00 AM69 °FMild.5 mph91%29.76 "Hg12 mi
1:00 AM69 °FLight rain. Overcast.3 mph97%29.76 "Hg9 mi
12:00 AM69 °FLight rain. Overcast.6 mph94%29.76 "Hg6 mi
11:00 PM
Fri, Aug 26
70 °FLight rain. Overcast.10 mph91%29.77 "Hg12 mi
10:00 PM71 °FLight rain. Overcast.8 mph88%29.77 "Hg7 mi
9:00 PM71 °FLight rain. Overcast.8 mph88%29.76 "Hg10 mi
8:00 PM72 °FLight rain. Overcast.14 mph82%29.74 "Hg12 mi
7:00 PM73 °FFog.8 mph87%29.73 "Hg5 mi
6:00 PM74 °FMild.7 mph85%29.70 "Hg8 mi
5:00 PM74 °FMild.8 mph87%29.69 "Hg9 mi
4:00 PM75 °FLight rain. Cloudy.7 mph84%29.67 "Hg10 mi
3:00 PM74 °FLight rain. Cloudy.14 mph88%29.67 "Hg8 mi
2:00 PM75 °FLight rain. Cloudy.14 mph90%29.64 "Hg4 mi
1:00 PM74 °FRain. Cloudy.15 mph96%29.66 "Hg2 mi
12:00 PM77 °FLight rain. Cloudy.3 mph94%29.66 "Hg9 mi
11:00 AM78 °FLight rain. Cloudy.3 mph91%29.66 "Hg10 mi
10:00 AM77 °FLight rain. Cloudy.3 mph91%29.67 "Hg7 mi
9:00 AM78 °FLight rain. Cloudy.5 mph88%29.67 "Hg7 mi
8:00 AM77 °FRain. Cloudy.2 mph96%29.67 "Hg4 mi
7:00 AM77 °FLight rain. Cloudy.6 mph90%29.66 "Hg9 mi
6:00 AM78 °FRain. Cloudy.17 mph98%29.67 "Hg2 mi
5:00 AM78 °FLight rain. Cloudy.3 mph94%29.65 "Hg6 mi
Weather by CustomWeather, © 2016

See weather overviewHow to use our weather pages